626  
ASUS44 KBMX 151810  
RWRAL  
 
ALABAMA REGIONAL WEATHER ROUNDUP  
NATIONAL WEATHER SERVICE BIRMINGHAM AL  
100 PM CDT MON JUL 15 2019  
 
NOTE: "FAIR" INDICATES FEW OR NO CLOUDS BELOW 12,000 FEET  
WITH NO SIGNIFICANT WEATHER AND/OR S TO VISIBILITY
.  
 
THE REMARK "TC" DENOTES TEMPERATURE IN DEGREES CELSIUS.  
 
ALZ001>011-014-016>018-020-151900-  
NORTH ALABAMA  
 
CITY SKY/WX TMP DP RH WIND PRES REMARKS
 
MUSCLE SHOALS LGT RAIN 76 71 85 S8 30.11F  
6HR MIN TEMP: 73; 6HR MAX TEMP: 78; 6HR PCP: 0.07;  
 
HUNTSVILLE CLOUDY 81 73 76 S8 30.13F  
6HR MIN TEMP: 73; 6HR MAX TEMP: 81;  
 
DECATUR FAIR 80 74 81 S8 30.13S  
6HR MIN TEMP: 72; 6HR MAX TEMP: 80; 6HR PCP: TRACE;  
 
HALEYVILLE FAIR 73 70 90 S8 30.15F  
6HR MIN TEMP: 71; 6HR MAX TEMP: 75; 6HR PCP: 0.23;  
 
GADSDEN FAIR 87 75 67 S8 30.14F HX 96  
6HR MIN TEMP: 71; 6HR MAX TEMP: 87;  
 

 
 
ALZ012-013-022-023-030>036-040>044-151900-  
WEST CENTRAL ALABAMA  
 
CITY SKY/WX TMP DP RH WIND PRES REMARKS
 
TUSCALOOSA LGT RAIN 77 73 87 S6 30.10F  
6HR MIN TEMP: 73; 6HR MAX TEMP: 80; 6HR PCP: 0.41;  
 
DEMOPOLIS MOCLDY 84 77 79 CALM 30.09F HX 93  
6HR MIN TEMP: 74; 6HR MAX TEMP: 84;  
 

 
 
ALZ015-024>026-033>036-041>044-151900-  
CENTRAL ALABAMA  
 
CITY SKY/WX TMP DP RH WIND PRES REMARKS
 
BIRMINGHAM PTSUNNY 86 72 62 S8 30.15F HX 92  
6HR MIN TEMP: 75; 6HR MAX TEMP: 86;  
 
MONTGOMERY FAIR 92 73 53 S7 30.12S HX 100  
6HR MIN TEMP: 74; 6HR MAX TEMP: 92;  
 
SHELBY CO ARPT FAIR 84 71 65 VRB6G17 30.13F  
6HR MIN TEMP: 73; 6HR MAX TEMP: 86;  
 
MAXWELL AFB FAIR 91 74 58 S10 30.11S HX 100  
6HR MIN TEMP: 75; 6HR MAX TEMP: 91;  
 
GREENVILLE FAIR 92 69 47 SW8 30.10F HX 97  
6HR MIN TEMP: 75; 6HR MAX TEMP: 92;  
 
SELMA N/A 90 75 62 S9 30.10S HX 100  
PRATTVILLE FAIR 87 74 63 S5 30.11F HX 95  
6HR MIN TEMP: 73; 6HR MAX TEMP: 88;  
 
BESSEMER FAIR 83 75 77 S9 30.14F HX 90  
TALLADEGA FAIR 89 72 56 SW9 30.14F HX 95  
PELL CITY CLEAR 88 75 66 SW6 30.14S HX 97  
MARION MOCLDY 88 77 71 S6 30.09F HX 100  
6HR MIN TEMP: 73; 6HR MAX TEMP: 88;  
 
SYLACAUGA PTSUNNY 90 68 49 SW9 30.14S HX 93  
6HR MIN TEMP: 73; 6HR MAX TEMP: 90;  
 

 
 
ALZ019-021-028-029-037-038-045>048-151900-  
EAST CENTRAL ALABAMA  
 
CITY SKY/WX TMP DP RH WIND PRES REMARKS
 
ANNISTON PTSUNNY 89 70 53 SW9 30.14F HX 94  
6HR MIN TEMP: 71; 6HR MAX TEMP: 89;  
 
ALEXANDER CITY FAIR 88 70 56 S9 30.16S HX 93  
6HR MIN TEMP: 72; 6HR MAX TEMP: 89;  
 
AUBURN FAIR 88 73 61 S8 30.17S HX 95  
6HR MIN TEMP: 76; 6HR MAX TEMP: 88;  
 

 
 
ALZ051>064-151900-  
SOUTHWEST ALABAMA  
 
CITY SKY/WX TMP DP RH WIND PRES REMARKS
 
MOBILE PTSUNNY 89 75 63 S17 30.11F HX 99  
6HR MIN TEMP: 81; 6HR MAX TEMP: 91; 6HR PCP: 0.03;  
 
BROOKLEY FIELD FAIR 91 79 67 SE12G18 30.11F HX 107  
6HR MIN TEMP: 84; 6HR MAX TEMP: 92;  
 
EVERGREEN FAIR 91 72 53 SW9 30.11F HX 98  
6HR MIN TEMP: 78; 6HR MAX TEMP: 93; 6HR PCP: 0.12;  
 

 
 
ALZ049-050-065>069-151900-  
SOUTHEAST ALABAMA  
 
CITY SKY/WX TMP DP RH WIND PRES REMARKS
 
DOTHAN FAIR 91 71 51 S7 30.16F HX 97  
6HR MIN TEMP: 75; 6HR MAX TEMP: 92;  
 
OZARK FAIR 90 73 57 S9 30.12F HX 98  
6HR MIN TEMP: 74; 6HR MAX TEMP: 91;  
 
TROY PTSUNNY 90 74 59 S9 30.13F HX 99  
6HR MIN TEMP: 72; 6HR MAX TEMP: 90;  
 
EUFAULA NOT AVBL  

 
 
 
CLICK HERE TO GO TO PREVIOUS BULLETINS.

The Nexlab AL Page Main Text Page